Regional Weather Roundup
Issued by NWS Huntsville, AL

Home | Current Version | Previous Version | Text Only | Print | Product List | Glossary On
Versions: 1 2 3 4 5 6 7 8 9 10 11 12 13 14 15 16 17 18 19 20 21 22 23 24 25 26 27
000
ASUS44 KHUN 251810
RWRHUN

WEATHER ROUNDUP FOR THE TENNESSEE VALLEY
NATIONAL WEATHER SERVICE HUNTSVILLE AL
100 PM CDT THU MAY 25 2017

ALZ001>004-251900-
NORTHWEST ALABAMA

CITY           SKY/WX    TMP DP  RH WIND       PRES   REMARKS
COURTLAND HCN    N/A     68 N/A N/A W13         N/A
RUSSELLVILLE     N/A     68 N/A N/A MISG        N/A
SHOALS AIRPORT MOSUNNY   73  49  42 W15G23    29.82F
6HR MIN TEMP:  55; 6HR MAX TEMP:  74;

SHOALS TVA RES   N/A     70 N/A N/A MISG        N/A
$$

ALZ005>007-016-251900-
NORTH CENTRAL ALABAMA

CITY           SKY/WX    TMP DP  RH WIND       PRES   REMARKS
CULLMAN AG STN   N/A     68 N/A N/A W9          N/A
DECATUR AP     MOSUNNY   70  51  51 W14G22    29.82R
6HR MIN TEMP:  56; 6HR MAX TEMP:  70;

HUNTSVILLE AP  PTSUNNY   70  53  54 W12G22    29.81S
6HR MIN TEMP:  56; 6HR MAX TEMP:  71;

MERIDIANVILLE  MOSUNNY   68  50  52 SW16      29.80S
REDSTONE ARSN  PTSUNNY   69  50  51 W13G21    29.81R
VINEMONT AP    FAIR      69  51  51 SW7       29.85F
$$

ALZ008>010-251900-
NORTHEAST ALABAMA

CITY           SKY/WX    TMP DP  RH WIND       PRES   REMARKS
ALBERTVILLE    MOSUNNY   68  55  64 W15G22    29.82S
FORT PAYNE     PTSUNNY   66  46  48 SW15G23   29.80S
SCOTTSBORO AP  MOSUNNY   68  48  49 W10G18    29.80F
SCOTTSBORO HCN   N/A     68 N/A N/A MISG        N/A
VALLEY HEAD      N/A     66 N/A N/A MISG        N/A
$$

TNZ076-096-097-251900-
SOUTHEASTERN MIDDLE TENNESSEE

CITY           SKY/WX    TMP DP  RH WIND       PRES   REMARKS
TULLAHOMA      PTSUNNY   66  50  55 W13       29.78S
WINCHESTER     PTSUNNY   68  52  56 W15G22      N/A
$$

...SURROUNDING SITES...

CITY           SKY/WX    TMP DP  RH WIND       PRES   REMARKS
ATLANTA        MOSUNNY   70  51  51 W16G26    29.81R
ANNISTON       MOSUNNY   68  49  50 W14G21    29.84S
BIRMINGHAM     MOSUNNY   69  51  52 W9G20     29.88S
CHATTANOOGA    MOSUNNY   71  49  45 SW14G23   29.76S
CORINTH        FAIR      72  50  46 W10G20    29.82S
DALTON         PTSUNNY   68  52  56 SW7G16    29.78R
GADSDEN        MOSUNNY   68  52  56 W9G20     29.84S
GOLDEN TRNGL   MOSUNNY   72  50  46 W9        29.83S
HALEYVILLE     FAIR      68  51  54 W10       29.86S
JACKSON TN     PTSUNNY   73  50  44 W9        29.80S
MEMPHIS        MOSUNNY   73  53  49 SW13      29.82F
NASHVILLE      PTSUNNY   71  52  50 W17G24    29.75R
OXFORD MS      FAIR      70  48  46 W8        29.86F
ROME           MOSUNNY   70  53  54 W12       29.79R
SAVANNAH       MOSUNNY   70  50  49 SW12G17   29.80S
SELMER         MOSUNNY   70  50  49 W12       29.81S
TUPELO         MOSUNNY   71  51  49 SW9       29.84S
TUSCALOOSA     MOSUNNY   72  53  51 W13       29.87R
$$

...GULF COAST WEATHER...

CITY           SKY/WX    TMP DP  RH WIND       PRES   REMARKS
GULFPORT       SUNNY     79  51  37 W13G18    29.88F
PASCAGOULA     SUNNY     79  48  33 NW7       29.88F
MOBILE         MOSUNNY   76  49  38 NW9       29.90S
GULF SHORES    CLEAR     76  50  40 W12G29    29.88F
PENSACOLA      SUNNY     79  46  31 NW9G16    29.86F
DESTIN         SUNNY     79  53  40 VRB6      29.86F
PANAMA CITY    MOSUNNY   76  52  42 W16G26    29.88R
APPALACHICOLA  SUNNY     78  54  43 W17       29.88R
$$





USA.gov is the U.S. government's official web portal to all federal, state and local government web resources and services.